Simultaneous Nadir Overpasses (SNOs) Predictions

Prediction of SNOs between METOP-B and NOAA-19 Satellite Orbit:

Table of predicted SNOs for the next 14.0 days since TLE Epoch: 9/27/2019
Index Date (METOP-B) Time (METOP-B) Lat,Lon (METOP-B) SZA (METOP-B ) Date (NOAA-19) Time (NOAA-19) Lat,Lon (NOAA-19) SZA (NOAA-19 ) Distance(km) Time Diff (sec)
1 10/01/2019 03:55:07 -79.53, -41.02 96.83 10/01/2019 03:53:55 -79.54, -40.91 96.82 2.84 72
2 10/01/2019 04:45:47 79.53, 126.29 83.19 10/01/2019 04:44:56 79.55, 126.27 83.20 2.76 51
3 10/01/2019 05:36:28 -79.55, -66.21 96.77 10/01/2019 05:35:55 -79.52, -66.19 96.80 2.81 33
4 10/01/2019 06:27:08 79.55, 101.10 83.25 10/01/2019 06:26:56 79.53, 100.98 83.22 2.95 12
5 10/01/2019 07:17:50 -79.53, -91.67 96.76 10/01/2019 07:17:56 -79.53, -91.76 96.77 1.96 6
6 10/01/2019 08:08:30 79.53, 75.64 83.25 10/01/2019 08:08:56 79.51, 75.69 83.24 2.62 26
7 10/01/2019 08:59:12 -79.52,-117.13 96.76 10/01/2019 08:59:56 -79.51,-117.05 96.75 2.01 44
8 10/01/2019 09:49:52 79.52, 50.18 83.26 10/01/2019 09:50:57 79.52, 50.12 83.27 1.33 65




NCC Satellite Simultaneous Nadir Overpasses (SNOs) Prediction Service
